Time,TemperatureF,DewpointF,PressureIn,WindDirection,WindDirectionDegrees,WindSpeedMPH,WindSpeedGustMPH,Humidity,HourlyPrecipIn,Conditions,Clouds,dailyrainin,SoftwareType,DateUTC
2013-01-26 10:00:00,15.5,7.8,29.77,West,270,2.0,2.0,71,0.00,,,0.00,WUHU216HW,2013-01-26 15:00:00,
2013-01-26 10:05:00,15.8,8.0,29.78,SSE,158,1.6,3.1,71,0.00,,,0.00,WUHU216HW,2013-01-26 15:05:00,
2013-01-26 10:10:00,15.8,8.0,29.78,East,91,2.2,3.1,71,0.00,,,0.00,WUHU216HW,2013-01-26 15:10:00,
2013-01-26 10:15:00,16.2,8.4,29.78,NE,37,1.1,3.1,71,0.00,,,0.00,WUHU216HW,2013-01-26 15:15:00,
2013-01-26 10:20:00,16.4,8.6,29.78,SW,216,1.2,3.1,71,0.00,,,0.00,WUHU216HW,2013-01-26 15:20:00,
2013-01-26 10:25:00,16.7,8.6,29.78,West,272,1.1,2.5,70,0.00,,,0.00,WUHU216HW,2013-01-26 15:25:00,
2013-01-26 10:30:00,16.9,8.5,29.78,ENE,74,2.1,3.6,69,0.00,,,0.00,WUHU216HW,2013-01-26 15:30:00,
2013-01-26 10:35:00,17.1,8.6,29.78,NW,315,2.2,3.6,69,0.00,,,0.00,WUHU216HW,2013-01-26 15:35:00,
2013-01-26 10:40:00,17.5,9.0,29.78,SW,233,0.8,2.9,69,0.00,,,0.00,WUHU216HW,2013-01-26 15:40:00,
2013-01-26 10:45:00,17.6,9.2,29.78,WNW,293,1.3,2.5,69,0.00,,,0.00,WUHU216HW,2013-01-26 15:45:00,
2013-01-26 10:50:00,17.8,9.4,29.78,West,270,0.7,2.5,69,0.00,,,0.00,WUHU216HW,2013-01-26 15:50:00,
2013-01-26 10:55:00,18.0,9.2,29.78,WSW,248,1.1,2.7,68,0.00,,,0.00,WUHU216HW,2013-01-26 15:55:00,
2013-01-26 11:00:00,18.0,8.5,29.78,West,260,2.0,3.8,66,0.00,,,0.00,WUHU216HW,2013-01-26 16:00:00,
2013-01-26 11:05:00,18.2,8.6,29.78,SW,225,1.8,3.8,66,0.00,,,0.00,WUHU216HW,2013-01-26 16:05:00,
2013-01-26 11:10:00,18.4,8.8,29.78,WNW,284,1.5,4.5,66,0.00,,,0.00,WUHU216HW,2013-01-26 16:10:00,
2013-01-26 11:15:00,18.5,9.0,29.78,NNW,328,1.5,4.5,66,0.00,,,0.00,WUHU216HW,2013-01-26 16:15:00,
2013-01-26 11:20:00,19.1,9.8,29.77,WSW,242,0.3,3.8,67,0.00,,,0.00,WUHU216HW,2013-01-26 16:20:00,
2013-01-26 11:25:00,19.1,9.1,29.77,East,93,1.9,4.5,65,0.00,,,0.00,WUHU216HW,2013-01-26 16:25:00,
2013-01-26 11:30:00,19.1,9.1,29.77,NW,315,2.0,4.5,65,0.00,,,0.00,WUHU216HW,2013-01-26 16:30:00,
2013-01-26 11:35:00,19.3,9.3,29.77,WSW,238,1.0,2.7,65,0.00,,,0.00,WUHU216HW,2013-01-26 16:35:00,
2013-01-26 11:40:00,19.4,9.5,29.76,WSW,248,1.3,3.8,65,0.00,,,0.00,WUHU216HW,2013-01-26 16:40:00,
2013-01-26 11:45:00,19.4,9.5,29.76,West,273,1.8,3.8,65,0.00,,,0.00,WUHU216HW,2013-01-26 16:45:00,
2013-01-26 11:50:00,19.4,9.5,29.76,NW,315,2.7,3.4,65,0.00,,,0.00,WUHU216HW,2013-01-26 16:50:00,
2013-01-26 11:55:00,19.4,8.7,29.76,WNW,288,1.2,3.4,63,0.00,,,0.00,WUHU216HW,2013-01-26 16:55:00,
2013-01-26 12:00:00,19.6,8.9,29.76,SW,225,2.5,4.0,63,0.00,,,0.00,WUHU216HW,2013-01-26 17:00:00,
2013-01-26 12:05:00,19.4,8.5,29.76,ENE,68,2.5,4.0,62,0.00,,,0.00,WUHU216HW,2013-01-26 17:05:00,
2013-01-26 12:10:00,19.4,8.5,29.76,WSW,240,2.1,4.9,62,0.00,,,0.00,WUHU216HW,2013-01-26 17:10:00,
2013-01-26 12:15:00,19.4,8.1,29.76,West,278,1.7,4.9,61,0.00,,,0.00,WUHU216HW,2013-01-26 17:15:00,
2013-01-26 12:20:00,19.4,7.7,29.76,North,0,2.5,4.3,60,0.00,,,0.00,WUHU216HW,2013-01-26 17:20:00,
2013-01-26 12:25:00,19.6,7.9,29.75,NNW,327,1.2,4.3,60,0.00,,,0.00,WUHU216HW,2013-01-26 17:25:00,
2013-01-26 12:30:00,19.8,8.5,29.75,WNW,288,0.6,2.5,61,0.00,,,0.00,WUHU216HW,2013-01-26 17:30:00,
2013-01-26 12:35:00,20.2,8.5,29.75,ENE,68,2.5,2.5,60,0.00,,,0.00,WUHU216HW,2013-01-26 17:35:00,
2013-01-26 12:40:00,20.2,6.8,29.75,SSW,213,2.0,2.7,56,0.00,,,0.00,WUHU216HW,2013-01-26 17:40:00,
2013-01-26 12:45:00,20.0,7.1,29.75,SW,225,1.8,3.8,57,0.00,,,0.00,WUHU216HW,2013-01-26 17:45:00,
2013-01-26 12:50:00,19.8,6.9,29.75,East,82,1.9,4.9,57,0.00,,,0.00,WUHU216HW,2013-01-26 17:50:00,
2013-01-26 12:55:00,20.0,6.7,29.75,WNW,302,2.3,5.4,56,0.00,,,0.00,WUHU216HW,2013-01-26 17:55:00,
2013-01-26 13:00:00,20.0,6.7,29.75,WSW,248,1.8,5.4,56,0.00,,,0.00,WUHU216HW,2013-01-26 18:00:00,
2013-01-26 13:05:00,20.0,6.7,29.75,SSW,203,1.1,4.0,56,0.00,,,0.00,WUHU216HW,2013-01-26 18:05:00,
2013-01-26 13:10:00,20.2,6.0,29.75,ENE,66,1.9,5.6,54,0.00,,,0.00,WUHU216HW,2013-01-26 18:10:00,
2013-01-26 13:15:00,20.2,6.0,29.75,NNE,24,1.3,5.6,54,0.00,,,0.00,WUHU216HW,2013-01-26 18:15:00,
2013-01-26 13:20:00,20.0,5.9,29.74,SW,233,1.3,3.4,54,0.00,,,0.00,WUHU216HW,2013-01-26 18:20:00,
2013-01-26 13:25:00,20.2,6.5,29.74,WSW,248,1.1,3.1,55,0.00,,,0.00,WUHU216HW,2013-01-26 18:25:00,
2013-01-26 13:30:00,20.5,5.9,29.74,East,90,2.2,2.7,53,0.00,,,0.00,WUHU216HW,2013-01-26 18:30:00,
2013-01-26 13:35:00,20.5,5.6,29.74,WNW,288,1.1,4.9,52,0.00,,,0.00,WUHU216HW,2013-01-26 18:35:00,
2013-01-26 13:40:00,20.5,5.6,29.75,SSW,194,1.8,4.9,52,0.00,,,0.00,WUHU216HW,2013-01-26 18:40:00,
2013-01-26 13:45:00,20.5,4.3,29.75,NNW,338,2.9,4.3,49,0.00,,,0.00,WUHU216HW,2013-01-26 18:45:00,
2013-01-26 13:50:00,20.5,5.1,29.75,SW,225,2.7,4.7,51,0.00,,,0.00,WUHU216HW,2013-01-26 18:50:00,
2013-01-26 13:55:00,20.7,6.1,29.75,East,90,0.9,4.7,53,0.00,,,0.00,WUHU216HW,2013-01-26 18:55:00,
2013-01-26 14:00:00,20.7,6.1,29.75,WSW,245,2.3,4.0,53,0.00,,,0.00,WUHU216HW,2013-01-26 19:00:00,
2013-01-26 14:05:00,20.7,4.4,29.76,NW,306,2.2,4.5,49,0.00,,,0.00,WUHU216HW,2013-01-26 19:05:00,
2013-01-26 14:10:00,20.7,4.4,29.76,WNW,293,2.0,4.7,49,0.00,,,0.00,WUHU216HW,2013-01-26 19:10:00,
2013-01-26 14:15:00,20.5,3.8,29.76,NW,310,2.0,4.7,48,0.00,,,0.00,WUHU216HW,2013-01-26 19:15:00,
2013-01-26 14:20:00,20.5,4.3,29.76,SW,228,1.5,4.7,49,0.00,,,0.00,WUHU216HW,2013-01-26 19:20:00,
2013-01-26 14:25:00,20.7,5.0,29.76,ENE,68,1.8,3.4,50,0.00,,,0.00,WUHU216HW,2013-01-26 19:25:00,
2013-01-26 14:30:00,20.5,3.8,29.76,NE,45,2.5,4.7,48,0.00,,,0.00,WUHU216HW,2013-01-26 19:30:00,
2013-01-26 14:35:00,20.5,4.8,29.76,WSW,240,1.3,4.7,50,0.00,,,0.00,WUHU216HW,2013-01-26 19:35:00,
2013-01-26 14:40:00,20.7,5.3,29.76,North,0,3.1,4.7,51,0.00,,,0.00,WUHU216HW,2013-01-26 19:40:00,
2013-01-26 14:45:00,20.9,5.0,29.77,West,273,3.8,7.2,50,0.00,,,0.00,WUHU216HW,2013-01-26 19:45:00,
2013-01-26 14:50:00,20.9,5.5,29.77,WNW,294,2.3,7.2,51,0.00,,,0.00,WUHU216HW,2013-01-26 19:50:00,
2013-01-26 14:55:00,20.9,5.5,29.77,North,0,2.0,3.8,51,0.00,,,0.00,WUHU216HW,2013-01-26 19:55:00,
2013-01-26 15:00:00,20.7,5.3,29.77,NNW,340,1.2,4.0,51,0.00,,,0.00,WUHU216HW,2013-01-26 20:00:00,
2013-01-26 15:05:00,20.9,5.5,29.78,NW,315,2.5,4.0,51,0.00,,,0.00,WUHU216HW,2013-01-26 20:05:00,
2013-01-26 15:10:00,20.9,5.5,29.78,NW,314,2.1,4.0,51,0.00,,,0.00,WUHU216HW,2013-01-26 20:10:00,
2013-01-26 15:15:00,20.9,5.5,29.78,SE,135,1.8,4.0,51,0.00,,,0.00,WUHU216HW,2013-01-26 20:15:00,
2013-01-26 15:20:00,20.9,6.0,29.78,NNW,336,1.1,2.9,52,0.00,,,0.00,WUHU216HW,2013-01-26 20:20:00,
2013-01-26 15:25:00,20.9,6.3,29.78,West,267,1.8,6.7,53,0.00,,,0.00,WUHU216HW,2013-01-26 20:25:00,
2013-01-26 15:30:00,21.1,6.0,29.79,North,2,0.8,6.7,52,0.00,,,0.00,WUHU216HW,2013-01-26 20:30:00,
2013-01-26 15:35:00,21.1,6.0,29.78,NNW,338,2.7,5.4,52,0.00,,,0.00,WUHU216HW,2013-01-26 20:35:00,
2013-01-26 15:40:00,21.1,6.0,29.78,WSW,250,1.9,4.7,52,0.00,,,0.00,WUHU216HW,2013-01-26 20:40:00,
2013-01-26 15:45:00,20.9,5.5,29.79,NNE,24,1.0,4.5,51,0.00,,,0.00,WUHU216HW,2013-01-26 20:45:00,
2013-01-26 15:50:00,20.7,5.8,29.79,North,4,1.7,4.5,52,0.00,,,0.00,WUHU216HW,2013-01-26 20:50:00,
2013-01-26 15:55:00,20.5,5.6,29.80,NNE,23,1.1,4.5,52,0.00,,,0.00,WUHU216HW,2013-01-26 20:55:00,
2013-01-26 16:00:00,20.5,5.6,29.80,North,0,4.7,4.7,52,0.00,,,0.00,WUHU216HW,2013-01-26 21:00:00,
2013-01-26 16:05:00,20.5,5.6,29.80,ENE,63,1.4,4.7,52,0.00,,,0.00,WUHU216HW,2013-01-26 21:05:00,
2013-01-26 16:10:00,20.5,5.9,29.80,NNW,332,0.7,4.7,53,0.00,,,0.00,WUHU216HW,2013-01-26 21:10:00,
2013-01-26 16:15:00,20.3,5.4,29.79,NE,39,2.7,4.0,52,0.00,,,0.00,WUHU216HW,2013-01-26 21:15:00,
2013-01-26 16:20:00,20.3,5.4,29.80,NNE,27,0.4,4.0,52,0.00,,,0.00,WUHU216HW,2013-01-26 21:20:00,
2013-01-26 16:25:00,20.2,5.2,29.80,North,358,1.3,3.6,52,0.00,,,0.00,WUHU216HW,2013-01-26 21:25:00,
2013-01-26 16:30:00,19.8,4.9,29.80,SW,225,1.6,3.4,52,0.00,,,0.00,WUHU216HW,2013-01-26 21:30:00,
2013-01-26 16:35:00,19.8,5.3,29.80,ENE,78,1.4,3.6,53,0.00,,,0.00,WUHU216HW,2013-01-26 21:35:00,
2013-01-26 16:40:00,19.6,5.1,29.80,East,90,1.3,3.6,53,0.00,,,0.00,WUHU216HW,2013-01-26 21:40:00,
2013-01-26 16:45:00,19.4,5.0,29.80,WNW,283,1.9,5.4,53,0.00,,,0.00,WUHU216HW,2013-01-26 21:45:00,
2013-01-26 16:50:00,19.4,5.4,29.80,SE,139,1.4,5.4,54,0.00,,,0.00,WUHU216HW,2013-01-26 21:50:00,
2013-01-26 16:55:00,19.3,5.2,29.80,NNE,14,0.5,2.5,54,0.00,,,0.00,WUHU216HW,2013-01-26 21:55:00,
2013-01-26 17:00:00,19.1,5.4,29.81,East,90,1.1,1.6,55,0.00,,,0.00,WUHU216HW,2013-01-26 22:00:00,
2013-01-26 17:05:00,19.1,5.0,29.81,NNE,30,1.5,4.5,54,0.00,,,0.00,WUHU216HW,2013-01-26 22:05:00,
2013-01-26 17:10:00,19.1,5.4,29.81,South,186,1.1,4.5,55,0.00,,,0.00,WUHU216HW,2013-01-26 22:10:00,
2013-01-26 17:15:00,19.1,5.0,29.81,SW,224,0.8,3.4,54,0.00,,,0.00,WUHU216HW,2013-01-26 22:15:00,
2013-01-26 17:20:00,19.1,5.0,29.82,South,180,0.2,3.4,54,0.00,,,0.00,WUHU216HW,2013-01-26 22:20:00,
2013-01-26 17:25:00,19.1,5.0,29.82,SE,129,1.1,2.2,54,0.00,,,0.00,WUHU216HW,2013-01-26 22:25:00,
2013-01-26 17:30:00,18.9,4.9,29.82,ESE,113,0.7,2.2,54,0.00,,,0.00,WUHU216HW,2013-01-26 22:30:00,
2013-01-26 17:35:00,18.7,4.7,29.82,ENE,75,1.0,3.6,54,0.00,,,0.00,WUHU216HW,2013-01-26 22:35:00,
2013-01-26 17:40:00,18.7,4.3,29.83,West,265,0.8,3.6,53,0.00,,,0.00,WUHU216HW,2013-01-26 22:40:00,
2013-01-26 17:45:00,18.4,4.4,29.83,NW,315,1.8,4.0,54,0.00,,,0.00,WUHU216HW,2013-01-26 22:45:00,
2013-01-26 17:50:00,18.4,3.6,29.83,North,0,3.1,4.7,52,0.00,,,0.00,WUHU216HW,2013-01-26 22:50:00,
2013-01-26 17:55:00,18.4,3.6,29.83,WNW,293,2.7,4.7,52,0.00,,,0.00,WUHU216HW,2013-01-26 22:55:00,
2013-01-26 18:00:00,18.2,3.1,29.83,NNW,332,2.2,4.5,51,0.00,,,0.00,WUHU216HW,2013-01-26 23:00:00,
2013-01-26 21:00:00,14.6,2.0,29.91,NW,315,0.4,0.4,57,0.00,,,0.00,WUHU216HW,2013-01-27 02:00:00,